EW1036 Weather Reports


Display with metric or nautical units.
time (UTC)temp
F
wind
direction
speed
MPH
gust
MPH
rain 1hr
in
rain 24hr
in
rain mn
in
humidity
%
barometer
mb
20260831010055 74 0 0.0 0.0 0.01 0.22 0.22 96 1020.0
20260831005533 74 0 0.0 0.0 0.01 0.22 0.22 96 1020.0
20260831005033 74 0 0.0 0.0 0.01 0.22 0.22 96 1019.8
20260831004556 75 0 0.0 0.0 0.01 0.22 0.22 97 1019.8
20260831004032 75 0 0.0 0.0 0.01 0.22 0.22 97 1019.7
20260831003533 75 0 0.0 0.0 0.01 0.22 0.22 96 1019.6
20260831003056 75 0 0.0 0.0 0.01 0.22 0.22 96 1019.6
20260831002532 75 0 0.0 0.0 0.01 0.22 0.22 96 1019.5
20260831002032 75 0 0.0 0.0 0.01 0.22 0.22 96 1019.4
20260831001552 75 0 0.0 0.0 0.01 0.22 0.22 96 1019.5
20260831001032 75 0 0.0 0.0 0.00 0.21 0.21 96 1019.5
20260831000529 75 0 0.0 0.0 0.01 0.21 0.21 96 1019.5
20260831000058 75 0 0.0 0.0 0.02 0.21 0.21 96 1019.6
20260830235532 75 0 0.0 0.0 0.04 0.21 0.21 96 1019.6
20260830235031 75 0 0.0 0.0 0.05 0.21 0.21 96 1019.8
20260830234548 75 0 0.0 0.0 0.06 0.21 0.21 96 1019.8
20260830234041 75 0 0.0 0.0 0.08 0.21 0.21 96 1019.6
20260830233531 75 0 0.0 0.0 0.09 0.21 0.21 96 1019.7
20260830233054 75 0 0.0 0.0 0.10 0.21 0.21 96 1019.8
20260830232533 75 0 0.0 0.0 0.11 0.21 0.21 96 1019.7
20260830232035 75 0 0.0 0.0 0.12 0.21 0.21 96 1019.8
20260830231545 75 0 0.0 0.0 0.14 0.21 0.21 96 1019.9
20260830231032 75 0 0.0 0.0 0.16 0.21 0.21 96 1019.9
20260830230532 75 0 0.0 0.0 0.16 0.20 0.20 96 1019.8
20260830230100 75 0 0.0 0.0 0.15 0.18 0.18 96 1019.7
20260830225531 75 0 0.0 0.0 0.14 0.17 0.17 96 1019.8
20260830225032 75 0 0.0 0.0 0.13 0.16 0.16 96 1019.9
20260830224552 75 0 0.0 0.0 0.12 0.15 0.15 96 1020.1
20260830224032 75 0 0.0 0.0 0.10 0.13 0.13 96 1020.4
20260830223531 75 0 0.0 0.0 0.09 0.12 0.12 96 1020.6
20260830223059 75 0 0.0 0.0 0.07 0.10 0.10 96 1020.7
20260830222532 75 0 0.0 0.0 0.06 0.09 0.09 96 1020.7
20260830222032 75 0 0.0 0.0 0.06 0.09 0.09 96 1020.6
20260830221605 75 0 0.0 0.0 0.05 0.07 0.07 95 1020.6
20260830221030 75 0 0.0 0.0 0.04 0.05 0.05 95 1020.6
20260830220529 75 0 0.0 0.0 0.04 0.04 0.04 95 1020.8
20260830220056 75 0 0.0 0.0 0.03 0.03 0.03 95 1020.9
20260830215532 75 0 0.0 0.0 0.03 0.03 0.03 95 1020.9
20260830215035 75 0 0.0 0.0 0.03 0.03 0.03 95 1020.9
20260830214551 75 0 0.0 0.0 0.03 0.03 0.03 95 1020.9
20260830214031 75 0 0.0 0.0 0.03 0.03 0.03 95 1020.9
20260830213534 75 0 0.0 0.0 0.03 0.03 0.03 94 1020.8
20260830213046 75 0 0.0 0.0 0.03 0.03 0.03 94 1020.9
20260830212534 76 0 0.0 0.0 0.03 0.03 0.03 93 1021.2
20260830212033 76 0 0.0 0.0 0.03 0.03 0.03 93 1021.3
20260830211543 76 0 0.0 0.0 0.02 0.02 0.02 93 1021.4
20260830211033 76 0 0.0 0.0 0.01 0.01 0.01 92 1021.3
20260830210532 77 0 0.0 0.0 0.00 0.00 0.00 90 1021.0
20260830210055 77 0 0.0 0.0 0.00 0.00 0.00 90 1021.0
20260830205533 77 0 0.0 0.0 0.00 0.00 0.00 89 1021.1
20260830205031 78 0 0.0 0.0 0.00 0.00 0.00 89 1021.2
20260830204548 78 0 0.0 0.0 0.00 0.00 0.00 89 1021.3
20260830204034 78 0 0.0 3.0 0.00 0.00 0.00 88 1020.9
20260830203532 78 0 0.0 3.0 0.00 0.00 0.00 87 1020.5
20260830203051 79 180 0.0 3.0 0.00 0.00 0.00 86 1020.3
20260830202532 79 0 0.0 4.0 0.00 0.00 0.00 86 1020.1
20260830202033 80 0 0.0 7.0 0.00 0.00 0.00 85 1019.7
20260830201609 80 178 1.0 7.0 0.00 0.00 0.00 84 1019.9
20260830201032 81 190 2.0 7.0 0.00 0.00 0.00 83 1020.1
20260830200533 82 0 1.0 3.0 0.00 0.00 0.00 82 1020.1
20260830200100 83 0 0.0 3.0 0.00 0.00 0.00 82 1020.0
20260830195529 83 0 0.0 0.0 0.00 0.00 0.00 82 1020.1
20260830195032 83 0 0.0 0.0 0.00 0.00 0.00 83 1020.3
20260830194605 84 0 0.0 1.0 0.00 0.00 0.00 80 1020.2
20260830194032 85 0 0.0 4.0 0.00 0.00 0.00 76 1020.0
20260830193532 84 0 0.0 4.0 0.00 0.00 0.00 78 1019.7
20260830193054 84 0 0.0 1.0 0.00 0.00 0.00 85 1019.6
20260830192529 84 0 0.0 1.0 0.00 0.00 0.00 84 1019.5
20260830192031 84 0 0.0 1.0 0.00 0.00 0.00 80 1019.5
20260830191546 85 0 0.0 1.0 0.00 0.00 0.00 83 1019.7
20260830191032 85 0 0.0 1.0 0.00 0.00 0.00 78 1019.9
20260830190532 85 0 0.0 1.0 0.00 0.00 0.00 80 1020.0
20260830190054 85 0 0.0 2.0 0.00 0.00 0.00 77 1020.1
20260830185538 86 0 0.0 2.0 0.00 0.00 0.00 78 1020.2
20260830185033 86 0 0.0 2.0 0.00 0.00 0.00 79 1020.1
20260830184552 85 191 0.0 2.0 0.00 0.00 0.00 77 1020.2
20260830184032 85 0 0.0 0.0 0.00 0.00 0.00 81 1020.3
20260830183532 85 0 0.0 3.0 0.00 0.00 0.00 83 1020.3
20260830183047 86 0 0.0 3.0 0.00 0.00 0.00 73 1020.3
20260830182533 86 98 0.0 3.0 0.00 0.00 0.00 76 1020.3
20260830182031 86 0 0.0 3.0 0.00 0.00 0.00 76 1020.3
20260830181558 86 0 0.0 2.0 0.00 0.00 0.00 76 1020.4
20260830181033 86 60 0.0 2.0 0.00 0.00 0.00 78 1020.4
20260830180532 87 63 0.0 2.0 0.00 0.00 0.00 74 1020.5
20260830180100 86 0 0.0 2.0 0.00 0.00 0.00 81 1020.6
20260830175529 86 0 0.0 0.0 0.00 0.00 0.00 80 1020.6
20260830175033 87 0 0.0 0.0 0.00 0.00 0.00 79 1020.8
20260830174559 86 0 0.0 0.0 0.00 0.00 0.00 81 1020.8
20260830174031 86 0 0.0 0.0 0.00 0.00 0.00 82 1020.8
20260830173530 86 0 0.0 0.0 0.00 0.00 0.00 79 1020.9
20260830173102 86 0 0.0 4.0 0.00 0.00 0.00 82 1020.9
20260830172532 87 0 0.0 4.0 0.00 0.00 0.00 78 1021.0
20260830172032 87 0 1.0 4.0 0.00 0.00 0.00 76 1021.1
20260830171558 87 0 0.0 3.0 0.00 0.00 0.00 79 1021.0
20260830171030 87 0 0.0 2.0 0.00 0.00 0.00 79 1020.9
20260830170534 87 0 0.0 2.0 0.00 0.00 0.00 78 1021.0
20260830170100 88 0 0.0 0.0 0.00 0.00 0.00 81 1021.0
20260830165535 88 0 0.0 0.0 0.00 0.00 0.00 84 1021.3
20260830165033 88 0 0.0 1.0 0.00 0.00 0.00 80 1021.3
20260830164558 87 0 0.0 1.0 0.00 0.00 0.00 76 1021.3
20260830164032 87 0 0.0 3.0 0.00 0.00 0.00 74 1021.4
20260830163533 87 0 0.0 3.0 0.00 0.00 0.00 79 1021.5
20260830163113 87 30 0.0 3.0 0.00 0.00 0.00 79 1021.5
20260830162533 85 0 0.0 0.0 0.00 0.00 0.00 86 1021.5
20260830162033 84 0 0.0 3.0 0.00 0.00 0.00 86 1021.6
20260830161603 84 0 0.0 3.0 0.00 0.00 0.00 85 1021.7
20260830161032 85 0 0.0 3.0 0.00 0.00 0.00 82 1021.7
20260830160532 86 59 0.0 0.0 0.00 0.00 0.00 82 1021.7
20260830160054 85 0 0.0 0.0 0.00 0.00 0.00 83 1021.7
20260830155532 83 0 0.0 0.0 0.00 0.00 0.00 88 1021.6
20260830155034 83 0 0.0 0.0 0.00 0.00 0.00 87 1021.7
20260830154551 81 0 0.0 0.0 0.00 0.00 0.00 87 1021.6
20260830154032 82 0 0.0 0.0 0.00 0.00 0.00 87 1021.8
20260830153533 82 0 0.0 0.0 0.00 0.00 0.00 85 1021.8
20260830153055 83 0 0.0 1.0 0.00 0.00 0.00 82 1021.9
20260830152532 84 0 0.0 1.0 0.00 0.00 0.00 78 1022.0
20260830152032 86 0 0.0 2.0 0.00 0.00 0.00 77 1022.0
20260830151553 85 0 0.0 2.0 0.00 0.00 0.00 75 1022.1
20260830151032 86 0 0.0 2.0 0.00 0.00 0.00 81 1022.1
20260830150532 84 0 0.0 2.0 0.00 0.00 0.00 78 1022.2
20260830150056 83 0 0.0 1.0 0.00 0.00 0.00 81 1022.1
20260830145531 83 0 0.0 3.0 0.00 0.00 0.00 83 1022.1
20260830145032 84 0 0.0 3.0 0.00 0.00 0.00 81 1022.1
20260830144559 84 0 0.0 3.0 0.00 0.00 0.00 80 1022.2
20260830144036 84 0 0.0 2.0 0.00 0.00 0.00 80 1022.2
20260830143533 84 0 0.0 2.0 0.00 0.00 0.00 81 1022.2
20260830143058 83 0 0.0 2.0 0.00 0.00 0.00 82 1022.3
20260830142532 83 0 0.0 2.0 0.00 0.00 0.00 81 1022.3
20260830142032 83 0 0.0 2.0 0.00 0.00 0.00 83 1022.4
20260830141551 83 0 0.0 2.0 0.00 0.00 0.00 85 1022.3
20260830141032 83 0 0.0 3.0 0.00 0.00 0.00 87 1022.3
20260830140534 82 0 0.0 3.0 0.00 0.00 0.00 84 1022.3
20260830140056 82 94 0.0 2.0 0.00 0.00 0.00 84 1022.2
20260830135532 82 0 0.0 2.0 0.00 0.01 0.00 84 1022.2
20260830135033 82 0 0.0 1.0 0.00 0.01 0.00 87 1022.1
20260830134556 82 0 0.0 2.0 0.00 0.01 0.00 88 1022.1
20260830134032 82 0 0.0 2.0 0.00 0.01 0.00 85 1022.0
20260830133533 82 0 0.0 2.0 0.00 0.01 0.00 84 1022.2
20260830133057 82 0 0.0 2.0 0.00 0.01 0.00 87 1022.2
20260830132533 81 0 0.0 3.0 0.00 0.01 0.00 89 1022.1
20260830132032 81 0 0.0 3.0 0.00 0.01 0.00 89 1022.1
20260830131551 80 111 0.0 2.0 0.00 0.01 0.00 90 1022.1
20260830131032 80 0 0.0 2.0 0.00 0.01 0.00 90 1022.1
20260830130533 80 0 0.0 2.0 0.00 0.01 0.00 90 1022.0
20260830130048 80 0 0.0 1.0 0.00 0.01 0.00 93 1022.0
20260830125532 79 0 0.0 3.0 0.00 0.01 0.00 93 1022.0
20260830125032 79 0 0.0 3.0 0.00 0.01 0.00 95 1022.0
20260830124547 78 0 0.0 3.0 0.00 0.01 0.00 96 1022.0
20260830124032 77 0 0.0 2.0 0.00 0.01 0.00 96 1022.0
20260830123533 76 0 0.0 2.0 0.00 0.01 0.00 96 1021.9
20260830123054 76 0 0.0 0.0 0.00 0.01 0.00 96 1021.9
20260830122533 76 0 0.0 0.0 0.00 0.01 0.00 96 1022.0
20260830122033 76 0 0.0 0.0 0.00 0.01 0.00 96 1021.9
20260830121558 75 0 0.0 0.0 0.00 0.01 0.00 96 1021.8
20260830121032 75 0 0.0 0.0 0.00 0.01 0.00 96 1021.9
20260830120533 75 0 0.0 0.0 0.00 0.01 0.00 96 1021.9
20260830120104 75 0 0.0 0.0 0.00 0.01 0.00 96 1021.9
20260830115532 75 0 0.0 0.0 0.00 0.02 0.00 96 1021.9
20260830115033 74 0 0.0 0.0 0.00 0.02 0.00 96 1022.0
20260830114602 74 0 0.0 0.0 0.00 0.02 0.00 96 1022.0
20260830114032 74 0 0.0 0.0 0.00 0.02 0.00 96 1021.9
20260830113534 74 0 0.0 0.0 0.00 0.02 0.00 96 1022.0
20260830113050 74 0 0.0 0.0 0.00 0.02 0.00 96 1021.9
20260830112532 74 0 0.0 0.0 0.00 0.02 0.00 96 1021.9
20260830112032 74 0 0.0 0.0 0.00 0.02 0.00 96 1021.9
20260830111558 74 0 0.0 0.0 0.00 0.02 0.00 96 1021.8
20260830111032 74 0 0.0 0.0 0.00 0.02 0.00 96 1021.8
20260830110531 74 0 0.0 0.0 0.00 0.02 0.00 96 1021.8
20260830110055 74 0 0.0 0.0 0.00 0.02 0.00 96 1021.7
20260830105533 74 0 0.0 0.0 0.00 0.03 0.00 96 1021.8
20260830105032 74 0 0.0 0.0 0.00 0.03 0.00 96 1021.8
20260830104551 74 0 0.0 0.0 0.00 0.03 0.00 96 1021.7
20260830104032 73 0 0.0 0.0 0.00 0.03 0.00 96 1021.8
20260830103533 73 0 0.0 0.0 0.00 0.03 0.00 96 1021.7
20260830103048 73 0 0.0 0.0 0.00 0.03 0.00 96 1021.7
20260830102531 73 0 0.0 0.0 0.00 0.03 0.00 95 1021.7
20260830102031 73 0 0.0 0.0 0.00 0.03 0.00 96 1021.7
20260830101558 73 0 0.0 0.0 0.00 0.03 0.00 96 1021.7
20260830101033 73 0 0.0 0.0 0.00 0.03 0.00 96 1021.7
20260830100531 73 0 0.0 0.0 0.00 0.03 0.00 95 1021.7
20260830100118 73 0 0.0 0.0 0.00 0.03 0.00 95 1021.8
20260830095534 73 0 0.0 0.0 0.00 0.03 0.00 95 1021.7
20260830095032 73 0 0.0 0.0 0.00 0.03 0.00 95 1021.7
20260830094554 73 0 0.0 0.0 0.00 0.03 0.00 95 1021.6
20260830094034 73 0 0.0 0.0 0.00 0.03 0.00 95 1021.6
20260830093532 73 0 0.0 0.0 0.00 0.03 0.00 95 1021.4
20260830093101 73 0 0.0 0.0 0.00 0.03 0.00 95 1021.4
20260830092531 73 0 0.0 0.0 0.00 0.03 0.00 95 1021.3
20260830092032 73 0 0.0 0.0 0.00 0.03 0.00 95 1021.3
20260830091600 73 0 0.0 0.0 0.00 0.03 0.00 95 1021.2
20260830091033 73 0 0.0 0.0 0.00 0.03 0.00 95 1021.4
20260830090532 73 0 0.0 0.0 0.00 0.03 0.00 95 1021.4
20260830090057 72 0 0.0 0.0 0.00 0.03 0.00 95 1021.4
20260830085531 72 0 0.0 0.0 0.00 0.04 0.00 95 1021.4
20260830085033 72 0 0.0 0.0 0.00 0.04 0.00 94 1021.4
20260830084558 72 0 0.0 0.0 0.00 0.04 0.00 94 1021.3
20260830084035 73 0 0.0 0.0 0.00 0.04 0.00 94 1021.2
20260830083532 73 0 0.0 0.0 0.00 0.04 0.00 94 1021.2
20260830083056 73 0 0.0 0.0 0.00 0.04 0.00 94 1021.1
20260830082534 73 0 0.0 0.0 0.00 0.04 0.00 94 1021.1
20260830082032 73 0 0.0 0.0 0.00 0.04 0.00 94 1021.1
20260830081550 73 0 0.0 0.0 0.00 0.04 0.00 94 1021.1
20260830081032 73 0 0.0 0.0 0.00 0.04 0.00 94 1021.2
20260830080533 73 0 0.0 0.0 0.00 0.04 0.00 94 1021.1
20260830080059 73 0 0.0 0.0 0.00 0.04 0.00 94 1021.1
20260830075532 73 0 0.0 0.0 0.00 0.04 0.00 94 1021.0
20260830075034 73 0 0.0 0.0 0.00 0.04 0.00 94 1021.0
20260830074556 73 0 0.0 0.0 0.00 0.04 0.00 94 1021.0
20260830074033 73 0 0.0 0.0 0.00 0.04 0.00 94 1020.9
20260830073531 73 0 0.0 0.0 0.00 0.04 0.00 94 1020.9
20260830073055 73 0 0.0 0.0 0.00 0.04 0.00 94 1021.0
20260830072533 73 0 0.0 0.0 0.00 0.04 0.00 94 1021.0
20260830072032 73 0 0.0 0.0 0.00 0.04 0.00 94 1021.1
20260830071551 73 0 0.0 0.0 0.00 0.04 0.00 94 1021.1
20260830071032 73 0 0.0 0.0 0.00 0.04 0.00 94 1021.3
20260830070531 73 0 0.0 0.0 0.00 0.04 0.00 94 1021.2
20260830070049 73 0 0.0 0.0 0.00 0.04 0.00 94 1021.2
20260830065531 73 0 0.0 0.0 0.00 0.04 0.00 94 1021.3
20260830065031 73 0 0.0 0.0 0.00 0.04 0.00 94 1021.5
20260830064557 73 0 0.0 0.0 0.00 0.04 0.00 93 1021.6
20260830064033 73 0 0.0 0.0 0.00 0.04 0.00 93 1021.8
20260830063532 73 0 0.0 0.0 0.00 0.04 0.00 94 1021.8
20260830063105 73 0 0.0 0.0 0.00 0.04 0.00 94 1021.7
20260830062531 73 0 0.0 0.0 0.00 0.04 0.00 94 1021.7
20260830062031 73 0 0.0 0.0 0.00 0.04 0.00 94 1021.7
20260830061552 73 0 0.0 0.0 0.00 0.04 0.00 94 1021.8
20260830061032 73 0 0.0 0.0 0.00 0.04 0.00 93 1021.9
20260830060534 73 0 0.0 0.0 0.00 0.04 0.00 94 1021.9
20260830060050 73 0 0.0 0.0 0.00 0.04 0.00 93 1021.9
20260830055532 73 0 0.0 0.0 0.00 0.04 0.00 93 1022.0
20260830055032 73 0 0.0 0.0 0.00 0.04 0.00 93 1022.0
20260830054557 73 0 0.0 0.0 0.00 0.04 0.00 93 1022.0
20260830054031 73 0 0.0 0.0 0.00 0.04 0.00 93 1022.1
20260830053531 73 0 0.0 0.0 0.00 0.04 0.00 93 1022.1
20260830053043 73 0 0.0 0.0 0.00 0.04 0.00 93 1022.1
20260830052531 73 0 0.0 0.0 0.00 0.04 0.00 93 1022.2
20260830052034 73 0 0.0 0.0 0.00 0.04 0.00 93 1022.2
20260830051552 73 0 0.0 0.0 0.00 0.04 0.00 93 1022.2
20260830051035 73 0 0.0 0.0 0.00 0.04 0.00 93 1022.4
20260830050536 73 0 0.0 0.0 0.00 0.04 0.00 93 1022.5
20260830050050 74 0 0.0 0.0 0.00 0.04 0.00 93 1022.5
20260830045535 74 0 0.0 0.0 0.00 0.04 0.00 93 1022.5
20260830045032 74 0 0.0 0.0 0.00 0.04 0.00 93 1022.5
20260830044553 74 0 0.0 0.0 0.00 0.04 0.00 93 1022.4
20260830044029 74 0 0.0 0.0 0.00 0.04 0.00 93 1022.5
20260830043534 74 0 0.0 0.0 0.00 0.04 0.00 93 1022.5
20260830043044 74 0 0.0 0.0 0.00 0.04 0.00 93 1022.3
20260830042532 74 0 0.0 0.0 0.00 0.04 0.00 93 1022.4
20260830042033 74 0 0.0 0.0 0.00 0.04 0.00 93 1022.4
20260830041608 74 0 0.0 0.0 0.00 0.04 0.00 93 1022.4
20260830041034 74 0 0.0 0.0 0.00 0.04 0.00 93 1022.3
20260830040536 74 0 0.0 0.0 0.00 0.04 0.00 92 1022.4
20260830040101 74 0 0.0 0.0 0.00 0.04 0.00 92 1022.4
20260830035534 74 0 0.0 0.0 0.00 0.04 0.04 92 1022.4
20260830035033 74 0 0.0 0.0 0.00 0.04 0.04 92 1022.4
20260830034557 74 0 0.0 0.0 0.00 0.04 0.04 92 1022.5
20260830034029 74 0 0.0 0.0 0.00 0.04 0.04 92 1022.4
20260830033530 74 0 0.0 0.0 0.00 0.04 0.04 92 1022.4
20260830033055 74 0 0.0 0.0 0.00 0.04 0.04 92 1022.4
20260830032532 74 0 0.0 0.0 0.00 0.04 0.04 92 1022.4
20260830032033 75 0 0.0 0.0 0.00 0.04 0.04 92 1022.3
20260830031551 75 0 0.0 0.0 0.00 0.04 0.04 92 1022.2
20260830031034 75 0 0.0 0.0 0.00 0.04 0.04 92 1022.3
20260830030533 75 0 0.0 0.0 0.00 0.04 0.04 92 1022.2
20260830030048 75 0 0.0 0.0 0.00 0.04 0.04 92 1022.3
20260830025532 75 0 0.0 0.0 0.00 0.04 0.04 92 1022.2
20260830025032 75 0 0.0 0.0 0.00 0.04 0.04 92 1022.2
20260830024543 75 0 0.0 0.0 0.00 0.04 0.04 92 1022.1
20260830024029 75 0 0.0 0.0 0.00 0.04 0.04 92 1022.0
20260830023529 75 0 0.0 0.0 0.00 0.04 0.04 92 1022.0
20260830023107 75 0 0.0 0.0 0.00 0.04 0.04 92 1021.7
20260830022533 75 0 0.0 0.0 0.00 0.04 0.04 92 1021.7
20260830022030 75 0 0.0 0.0 0.00 0.04 0.04 92 1021.6
20260830021556 75 0 0.0 0.0 0.00 0.04 0.04 92 1021.5
20260830021029 75 0 0.0 0.0 0.00 0.04 0.04 92 1021.5
20260830020533 75 0 0.0 0.0 0.00 0.04 0.04 92 1021.4
20260830020051 75 0 0.0 0.0 0.00 0.04 0.04 92 1021.5
20260830015529 75 0 0.0 0.0 0.00 0.04 0.04 92 1021.6
20260830015029 76 0 0.0 0.0 0.00 0.04 0.04 92 1021.5
20260830014554 76 0 0.0 0.0 0.00 0.04 0.04 92 1021.5
20260830014033 76 0 0.0 0.0 0.00 0.04 0.04 92 1021.5
20260830013532 76 0 0.0 0.0 0.00 0.04 0.04 92 1021.4
20260830013051 76 0 0.0 0.0 0.00 0.04 0.04 92 1021.4
20260830012532 76 0 0.0 0.0 0.00 0.04 0.04 92 1021.4
20260830012032 76 0 0.0 0.0 0.00 0.04 0.04 92 1021.4
20260830011546 76 0 0.0 0.0 0.00 0.04 0.04 92 1021.5
20260830011033 76 0 0.0 0.0 0.00 0.04 0.04 91 1021.4
20260830010534 76 0 0.0 0.0 0.00 0.04 0.04 91 1021.4